Temp
58 59 58 57 56 54 53 49 53 66 67 57 47 49 54 60 65 69 67 63 63 61 63 58 59 62 67 78 71 65 65 57 55 63 67 69 65 61 58 54 52 48 51 56
59 59 58 56 55 54 53 47 47 64 67 49 49 54 61 65 63 64 64 66 67 66 60 57 61 65 77 78 72 63 64 54 52 58 61 64 59 59 56 54 51 49 51 56
60 59 58 56 55 54 51 49 49 56 58 54 51 51 56 59 70 67 68 68 65 62 60 57 61 64 74 76 73 70 68 51 56 55 57 60 58 63 60 56 51 49 54 59
61 59 58 56 56 55 51 48 49 52 48 52 52 51 57 60 60 67 66 63 65 62 52 56 57 63 67 73 71 69 64 56 51 55 63 63 64 62 62 57 55 55 61 60
61 60 58 57 56 54 51 49 49 52 49 51 53 50 53 59 61 61 64 62 68 64 57 57 56 59 58 60 69 64 60 56 52 53 62 63 57 62 62 61 59 59 61 60
60 60 58 58 56 54 50 52 53 51 48 50 50 50 55 61 61 64 70 69 65 65 68 69 68 66 64 63 59 61 58 55 53 50 57 59 54 58 59 59 59 55 52 58
59 60 59 58 58 56 51 51 51 48 46 50 52 55 59 60 60 58 67 67 63 70 73 69 63 60 61 65 60 58 56 52 49 50 52 46 57 63 65 63 65 63 62 64
59 60 60 59 58 58 52 52 51 51 47 50 54 55 56 58 58 57 63 67 68 66 61 60 56 57 60 60 59 56 55 53 50 49 46 52 58 62 60 58 59 65 62 65
59 60 60 60 58 58 52 51 56 55 51 45 56 52 54 50 50 53 61 67 64 66 57 55 49 49 53 54 58 54 56 53 54 47 47 47 56 65 68 66 54 66 65 63
58 59 60 60 60 58 56 52 54 53 48 50 50 49 49 54 51 48 53 59 60 65 53 50 49 50 52 50 47 49 50 48 47 45 45 52 61 65 67 53 56 65 65 63
58 58 59 59 60 59 57 53 58 53 52 54 56 59 53 51 51 48 52 54 56 52 48 48 47 48 49 46 49 47 49 48 46 44 44 47 64 63 60 61 61 64 63 63
57 58 58 58 58 58 58 52 56 61 54 53 57 61 63 62 61 52 51 51 52 53 49 49 49 48 47 46 46 49 47 51 49 51 52 58 60 62 65 63 62 64 62 66
57 58 58 58 58 58 57 55 57 56 52 49 48 51 60 60 64 66 50 52 59 55 56 51 52 50 49 45 46 48 52 53 50 53 56 58 61 64 65 65 64 67 67 70
58 58 58 58 58 58 58 55 58 56 52 48 48 61 57 63 61 62 64 61 60 57 57 55 52 52 56 49 50 48 52 53 51 50 56 59 63 62 67 67 70 69 70 72
58 58 58 58 57 56 56 56 58 59 52 46 49 56 58 58 59 61 63 60 56 52 52 51 50 51 52 49 49 48 53 52 49 51 59 59 62 64 67 66 69 72 69 71
57 58 58 57 56 56 55 50 57 57 56 50 47 51 53 58 59 58 58 60 58 55 53 52 55 58 56 48 47 56 56 57 59 61 62 61 65 67 69 67 68 70 70 71
57 58 56 56 55 55 53 51 55 55 57 51 47 47 54 60 58 57 57 61 57 57 53 52 54 56 56 48 50 56 60 61 63 64 61 62 67 67 70 70 73 70 72 71
56 56 56 56 55 55 53 57 57 56 54 53 47 45 51 57 53 53 55 56 55 55 56 52 54 53 52 49 56 60 64 69 68 67 65 66 70 66 69 70 70 69 69 69
56 56 56 55 54 52 55 61 59 57 53 48 48 43 45 55 51 52 54 54 52 54 53 52 54 50 48 53 57 60 63 61 64 67 65 65 63 66 67 70 67 65 65 67
56 55 52 49 53 60 59 54 51 51 51 50 47 51 43 50 50 51 51 51 56 49 53 54 51 56 64 62 62 61 63 63 64 60 62 63 63 66 67 69 70 70 69 66
53 51 49 54 58 53 51 47 46 47 45 47 47 50 48 52 45 49 56 51 55 50 53 53 48 47 54 59 63 68 67 68 67 68 69 67 67 68 67 68 68 68 66 65
52 52 55 54 51 49 46 45 46 45 43 45 47 49 49 51 49 49 55 52 50 47 54 51 49 50 54 55 58 60 64 66 70 70 67 69 69 69 68 68 67 67 66 66
54 51 49 48 47 39 41 40 42 43 45 50 52 51 51 52 48 47 48 47 48 54 49 50 47 52 55 54 58 60 64 66 67 69 68 70 70 70 69 69 68 67 66 65
48 45 37 43 41 43 45 43 43 47 47 51 54 53 51 52 50 51 45 51 50 48 45 46 48 50 52 54 56 58 58 58 61 66 69 70 70 69 69 69 67 67 65 62
46 45 39 41 47 45 46 47 46 53 53 48 47 49 52 48 49 49 51 49 47 47 46 48 50 51 51 53 55 56 57 58 58 59 58 65 69 67 67 67 65 64 62 61
47 46 43 45 42 42 44 46 46 49 54 50 50 48 45 44 46 46 47 47 47 49 53 53 52 50 51 52 54 55 58 57 57 58 58 58 62 66 65 64 64 63 62 61
45 43 47 43 42 43 44 46 48 52 48 46 46 46 47 48 45 47 49 45 49 51 52 53 54 52 51 53 54 56 57 57 58 59 59 58 59 61 63 63 62 64 63 62
MSLP
1018.40 1017.91 1017.38 1016.76 1015.99 1014.90 1014.00 1014.18 1012.88 1010.34 1010.16 1010.90 1011.74 1011.71 1010.68 1009.46 1008.14 1007.32 1006.92 1006.23 1005.87 1005.15 1004.24 1003.76 1003.30 1002.81 1002.17 1001.60 1001.87 1002.67 1002.79 1003.45 1003.69 1002.98 1002.01 1001.68 1001.83 1002.48 1003.79 1005.91 1006.95 1007.33 1006.38 1004.50
1018.31 1017.88 1017.41 1016.91 1016.38 1016.02 1015.88 1015.36 1013.78 1010.73 1010.51 1011.53 1012.03 1011.39 1010.40 1009.18 1007.89 1006.92 1006.43 1005.66 1004.81 1004.22 1004.02 1003.74 1003.31 1002.77 1001.91 1001.53 1001.84 1002.01 1002.57 1003.52 1003.89 1003.32 1002.90 1002.01 1002.23 1002.77 1003.58 1004.73 1005.56 1006.39 1006.03 1003.99
1018.24 1017.94 1017.52 1017.02 1016.52 1016.23 1016.26 1015.73 1014.47 1012.38 1011.62 1011.94 1011.98 1011.66 1010.52 1009.19 1007.39 1006.57 1005.90 1004.77 1004.03 1004.15 1003.89 1003.57 1003.36 1003.02 1002.18 1001.83 1002.10 1002.09 1002.03 1003.46 1003.58 1003.37 1003.11 1002.70 1002.67 1002.87 1003.25 1004.25 1005.53 1005.81 1005.27 1003.87
1018.20 1018.00 1017.61 1017.09 1016.53 1016.19 1016.32 1015.97 1015.40 1014.49 1013.50 1012.94 1012.43 1011.64 1010.76 1009.66 1008.34 1006.68 1005.77 1004.94 1004.45 1003.95 1003.87 1003.58 1003.69 1003.39 1003.04 1002.22 1002.27 1002.33 1002.60 1003.89 1003.88 1003.41 1003.26 1002.97 1003.32 1003.67 1003.84 1004.38 1004.82 1005.13 1004.21 1003.95
1018.25 1018.02 1017.74 1017.21 1016.57 1016.10 1016.21 1016.20 1015.92 1015.01 1014.33 1013.54 1012.83 1012.07 1011.26 1010.43 1009.26 1008.06 1006.29 1005.71 1004.87 1004.01 1004.13 1004.01 1003.87 1003.82 1003.62 1003.59 1003.20 1003.57 1003.72 1004.71 1004.75 1004.39 1003.56 1003.49 1004.51 1004.28 1004.35 1004.72 1005.06 1004.68 1004.37 1003.72
1018.50 1018.10 1017.88 1017.44 1016.86 1016.37 1016.67 1016.44 1016.02 1015.78 1014.89 1014.19 1013.41 1012.85 1011.98 1010.86 1010.27 1008.00 1007.00 1006.19 1005.37 1004.83 1004.51 1004.21 1003.74 1003.81 1003.77 1003.82 1004.36 1004.70 1005.08 1005.49 1005.83 1005.38 1004.47 1004.34 1005.22 1005.58 1005.35 1005.82 1005.96 1005.84 1005.62 1004.71
1018.67 1018.32 1017.97 1017.61 1017.27 1017.14 1017.49 1017.13 1016.82 1016.36 1015.58 1014.75 1014.06 1013.27 1012.57 1011.53 1010.60 1010.05 1007.77 1006.71 1006.10 1005.19 1004.75 1004.16 1004.05 1004.16 1004.28 1004.51 1004.93 1004.98 1005.68 1006.32 1006.55 1006.41 1005.47 1005.78 1005.91 1005.72 1005.69 1005.54 1005.77 1005.80 1005.71 1004.98
1018.73 1018.38 1018.04 1017.73 1017.46 1017.25 1017.52 1017.33 1017.16 1016.76 1016.14 1015.34 1014.27 1013.61 1012.97 1011.92 1010.72 1010.03 1008.72 1007.51 1006.92 1006.21 1005.60 1005.40 1005.36 1005.39 1005.21 1005.49 1005.82 1005.83 1005.90 1006.37 1007.19 1007.47 1007.21 1006.64 1006.32 1006.01 1005.94 1005.50 1005.63 1005.52 1005.30 1004.50
1018.74 1018.42 1018.09 1017.77 1017.56 1017.35 1017.36 1017.22 1016.92 1016.74 1016.27 1015.08 1014.55 1014.16 1013.50 1012.83 1011.85 1010.71 1009.35 1007.75 1006.89 1006.30 1006.50 1006.93 1007.39 1007.35 1006.92 1006.84 1006.61 1006.61 1006.62 1006.71 1007.52 1008.32 1007.79 1007.16 1006.35 1005.41 1005.10 1005.41 1005.45 1005.08 1005.29 1005.07
1018.80 1018.47 1018.14 1017.84 1017.61 1017.41 1017.37 1017.17 1016.83 1016.78 1016.51 1014.96 1014.39 1014.18 1013.79 1013.30 1012.94 1012.40 1011.08 1010.09 1008.33 1007.50 1008.02 1008.60 1008.84 1008.56 1008.30 1008.18 1008.09 1008.10 1008.20 1008.43 1008.84 1008.82 1008.10 1007.07 1005.94 1005.23 1005.19 1005.56 1005.82 1005.09 1005.08 1005.03
1018.73 1018.48 1018.18 1017.87 1017.63 1017.44 1017.31 1017.07 1016.43 1016.67 1016.02 1014.52 1013.86 1013.68 1013.46 1013.41 1013.34 1012.99 1011.72 1010.70 1009.97 1009.55 1009.80 1010.45 1010.27 1009.88 1009.57 1009.36 1008.97 1008.82 1009.08 1009.26 1009.44 1009.11 1008.06 1006.76 1005.16 1005.17 1005.02 1004.62 1004.70 1004.79 1004.74 1004.63
1018.63 1018.39 1018.15 1017.87 1017.62 1017.45 1017.29 1017.21 1016.53 1016.28 1016.24 1014.29 1013.21 1012.89 1012.40 1012.17 1012.36 1012.60 1012.33 1011.86 1011.50 1010.60 1010.80 1010.98 1010.83 1010.57 1010.64 1010.43 1010.13 1009.43 1009.61 1009.02 1009.06 1008.68 1007.12 1006.13 1005.49 1004.90 1004.20 1004.19 1004.47 1004.29 1004.13 1003.69
1018.47 1018.21 1017.97 1017.76 1017.54 1017.36 1017.34 1017.02 1016.66 1016.22 1015.74 1014.00 1012.90 1011.48 1010.96 1010.85 1011.10 1011.52 1012.39 1011.42 1010.45 1010.40 1010.21 1010.60 1010.82 1010.81 1010.95 1010.98 1010.35 1009.78 1009.10 1008.81 1008.86 1008.17 1006.42 1005.72 1005.20 1004.75 1004.47 1004.19 1004.03 1003.73 1003.17 1002.90
1018.22 1017.97 1017.76 1017.55 1017.36 1017.19 1017.10 1016.91 1016.49 1016.41 1016.04 1015.00 1012.19 1010.72 1010.33 1009.86 1010.12 1010.43 1010.56 1010.29 1009.99 1010.33 1010.47 1010.72 1010.65 1010.66 1010.17 1010.39 1010.14 1010.00 1009.08 1008.82 1008.59 1008.03 1006.44 1005.50 1004.55 1004.16 1003.91 1003.69 1003.48 1003.40 1003.01 1003.00
1017.86 1017.65 1017.50 1017.30 1017.12 1016.94 1016.75 1016.47 1016.16 1016.11 1016.40 1015.32 1012.76 1010.86 1009.00 1008.68 1008.94 1009.28 1009.71 1010.13 1010.56 1010.87 1010.98 1010.85 1010.60 1009.81 1010.06 1010.22 1010.09 1009.08 1008.31 1007.82 1007.76 1006.69 1005.33 1005.30 1004.37 1003.45 1003.40 1003.60 1003.30 1002.54 1002.88 1002.60
1017.44 1017.29 1017.20 1017.05 1016.91 1016.72 1016.49 1016.24 1016.00 1015.83 1015.90 1015.50 1013.71 1011.07 1009.09 1008.53 1008.26 1008.54 1008.90 1008.97 1009.76 1010.12 1010.05 1009.75 1009.15 1008.43 1008.86 1009.55 1008.80 1006.73 1006.43 1006.09 1005.57 1005.03 1004.41 1004.34 1003.63 1003.04 1002.78 1002.92 1002.48 1002.08 1002.28 1002.04
1017.09 1016.89 1016.85 1016.79 1016.69 1016.64 1016.40 1016.27 1015.95 1015.75 1015.73 1015.30 1014.08 1012.11 1009.71 1008.14 1007.58 1007.61 1007.86 1008.04 1008.23 1008.51 1008.98 1008.94 1008.56 1008.35 1008.29 1008.55 1006.68 1005.97 1005.30 1005.13 1004.82 1004.24 1004.39 1003.98 1002.86 1002.64 1002.17 1002.22 1001.78 1001.75 1001.84 1001.88
1016.81 1016.65 1016.46 1016.37 1016.23 1016.23 1016.03 1015.42 1015.27 1015.53 1015.59 1015.40 1014.61 1012.63 1010.84 1008.75 1008.35 1007.82 1007.21 1007.26 1007.65 1007.60 1007.55 1007.88 1008.06 1008.10 1007.96 1006.93 1004.84 1004.46 1004.16 1003.92 1003.63 1003.13 1003.15 1002.72 1002.24 1002.28 1002.02 1001.91 1001.60 1001.38 1001.41 1001.59
1016.59 1016.38 1016.17 1016.19 1016.14 1015.91 1015.49 1015.21 1015.24 1015.35 1015.74 1015.06 1014.39 1013.46 1011.77 1009.84 1009.39 1008.41 1007.56 1007.22 1007.50 1007.21 1007.13 1007.11 1007.20 1007.28 1006.60 1004.90 1004.35 1003.88 1003.15 1003.20 1002.52 1002.07 1002.23 1002.34 1002.42 1002.03 1001.76 1001.56 1001.34 1001.53 1001.53 1001.59
1016.34 1016.32 1016.27 1015.97 1015.71 1015.36 1015.46 1015.32 1015.40 1015.22 1015.04 1014.72 1013.98 1013.37 1012.58 1011.49 1010.61 1009.21 1008.49 1007.71 1007.08 1007.02 1006.36 1006.26 1006.34 1005.72 1004.45 1003.61 1003.14 1002.89 1002.38 1002.19 1002.07 1002.29 1001.98 1001.66 1001.66 1001.54 1001.48 1001.13 1001.16 1001.05 1001.11 1001.34
1016.25 1016.11 1015.98 1015.78 1015.53 1015.60 1015.39 1015.22 1015.20 1014.98 1014.75 1014.21 1013.30 1012.74 1012.32 1011.32 1011.22 1009.94 1008.52 1007.95 1006.98 1006.66 1005.84 1005.97 1006.02 1005.58 1005.33 1004.78 1003.56 1002.47 1001.78 1001.23 1000.94 1000.88 1000.66 1000.65 1000.61 1000.69 1000.66 1000.77 1000.74 1000.81 1001.01 1001.23
1015.72 1015.73 1015.67 1015.70 1015.69 1015.55 1015.44 1014.83 1014.62 1014.44 1013.77 1013.07 1012.56 1011.80 1011.78 1011.15 1010.66 1010.16 1008.51 1007.78 1006.92 1006.01 1005.51 1005.87 1005.93 1006.07 1005.61 1004.92 1003.78 1002.64 1001.63 1000.50 1000.08 999.86 999.77 999.66 999.80 999.79 1000.07 1000.09 1000.26 1000.41 1000.45 1000.80
1015.65 1015.68 1015.58 1015.66 1015.59 1015.38 1014.71 1014.13 1013.63 1013.26 1012.61 1011.94 1011.48 1011.16 1010.69 1010.46 1010.31 1009.76 1008.78 1007.69 1006.47 1005.50 1005.68 1005.82 1007.12 1006.40 1005.48 1004.89 1003.89 1002.63 1001.67 1000.16 999.44 999.13 999.01 998.93 999.14 999.31 999.66 999.67 999.72 999.78 1000.22 1000.59
1015.51 1015.54 1015.52 1015.07 1014.50 1013.82 1012.84 1012.49 1012.17 1011.75 1011.58 1011.33 1011.07 1010.61 1009.94 1009.69 1009.68 1009.06 1008.52 1006.88 1006.47 1006.02 1006.15 1006.58 1006.93 1006.50 1006.09 1005.43 1004.64 1003.22 1002.50 1001.92 1001.01 1000.54 999.48 998.93 999.04 999.07 999.06 999.07 999.20 999.59 1000.06 1000.59
1014.92 1014.94 1014.25 1013.44 1012.64 1012.27 1012.11 1011.95 1011.90 1011.26 1010.92 1010.95 1010.86 1010.25 1009.78 1009.47 1009.26 1008.87 1008.02 1007.21 1006.49 1006.08 1006.53 1006.97 1006.68 1006.31 1006.13 1005.41 1004.91 1004.35 1003.35 1002.67 1002.13 1002.25 1001.73 1000.98 999.10 999.18 999.18 999.17 999.14 999.50 1000.02 1000.66
1014.26 1013.90 1013.13 1012.53 1012.60 1012.05 1011.81 1011.58 1011.28 1010.83 1010.33 1010.14 1010.07 1009.86 1009.65 1009.29 1008.76 1008.43 1007.76 1007.24 1006.46 1006.45 1006.65 1006.72 1006.45 1006.45 1006.25 1006.00 1005.76 1004.86 1004.02 1002.95 1002.65 1002.77 1002.45 1002.32 1001.71 999.35 999.24 999.27 999.08 999.34 999.90 1000.79
1013.42 1012.67 1012.20 1012.25 1012.23 1011.88 1011.34 1010.92 1010.59 1010.07 1010.16 1010.09 1009.80 1009.62 1008.97 1008.65 1008.12 1007.56 1006.99 1006.71 1006.32 1006.39 1006.54 1006.55 1006.40 1005.82 1005.86 1005.81 1005.72 1005.19 1004.05 1002.98 1002.65 1001.56 1002.21 1003.01 1002.62 1001.30 999.39 999.49 999.49 999.57 1000.11 1000.78
Wind_Speed
13 13 14 15 16 21 7 3 3 4 3 4 1 3 5 4 6 5 9 4 10 6 3 2 2 1 4 7 4 8 11 6 6 13 5 3 3 2 5 7 6 2 4 8
11 12 13 13 13 11 4 3 4 5 4 1 2 5 5 6 4 6 4 6 6 4 3 2 3 2 6 8 6 4 6 2 3 11 8 5 2 3 4 4 4 6 7 8
9 11 12 13 12 7 2 2 4 5 5 1 3 3 5 7 6 7 5 8 3 5 4 2 3 3 4 7 4 2 7 4 8 10 6 3 1 2 2 5 3 3 7 7
8 10 12 13 13 10 2 2 1 1 3 3 3 1 3 8 8 5 4 3 6 3 2 2 1 2 6 5 7 6 6 3 1 0 5 4 4 6 4 4 4 5 7 10
9 10 13 14 14 10 3 2 3 5 3 4 5 3 4 4 8 4 7 4 10 4 4 2 1 1 1 1 8 7 6 2 3 2 4 5 6 10 7 7 6 4 6 7
11 12 12 13 14 6 2 3 2 3 4 5 2 2 5 6 10 7 6 7 4 6 7 4 6 5 3 4 2 3 4 3 4 3 6 5 7 7 3 4 2 2 5 7
12 12 11 12 12 6 1 2 1 2 4 2 2 6 6 9 10 5 10 5 5 6 12 6 1 0 3 6 7 1 5 5 2 3 5 2 6 4 1 6 5 4 3 11
11 11 11 10 11 6 2 2 2 1 4 2 7 8 5 9 9 3 5 6 4 11 6 4 5 6 6 5 5 8 2 5 3 2 3 1 2 4 4 4 1 4 8 15
11 11 11 10 9 9 1 2 2 2 3 4 2 4 5 4 5 8 6 7 7 5 3 2 3 3 3 2 7 3 5 7 6 2 3 5 4 6 6 5 2 2 3 8
11 11 11 11 9 9 1 3 2 1 2 5 3 1 2 4 3 4 5 9 9 6 4 4 1 2 2 2 0 4 4 5 4 2 2 6 6 5 4 2 7 5 2 5
10 10 10 11 9 8 3 4 3 1 3 8 7 5 5 2 2 3 5 7 5 5 6 3 2 1 1 1 3 2 3 4 3 3 2 5 7 1 8 8 2 4 4 4
10 10 10 11 10 8 5 2 3 3 4 7 4 9 12 15 13 2 3 3 2 4 4 1 1 1 1 1 3 2 3 6 4 8 7 3 3 4 4 4 5 5 4 7
10 10 10 9 10 7 4 2 2 2 3 7 2 7 7 5 15 14 5 4 6 3 4 4 2 2 4 3 6 2 3 3 2 4 4 5 7 7 6 4 8 7 11 7
10 11 10 9 9 8 5 2 1 2 3 5 8 4 7 5 6 11 20 8 3 3 3 2 2 2 4 4 3 3 4 2 3 6 10 8 9 10 12 8 11 10 10 11
10 11 11 11 9 9 5 3 3 4 2 4 9 15 8 3 10 16 14 16 8 1 1 2 4 2 3 1 0 5 6 8 6 8 8 4 9 5 4 11 15 13 8 12
10 10 9 9 9 7 2 2 1 1 2 3 6 5 7 6 6 8 11 13 6 4 5 5 4 4 4 3 5 5 7 8 8 8 3 7 8 8 5 7 10 10 7 7
11 8 7 8 8 2 2 2 1 2 1 2 5 6 6 7 3 3 4 7 5 5 4 4 4 3 5 2 13 2 6 9 9 12 1 10 10 10 4 8 11 6 5 6
10 7 7 9 9 4 3 3 6 2 2 1 4 6 6 5 4 4 0 4 2 2 4 2 4 1 3 8 6 7 13 17 15 15 12 11 10 5 10 6 8 7 8 6
8 7 6 1 1 1 2 1 2 0 2 2 3 3 5 7 4 3 5 2 1 1 3 5 6 4 7 7 8 8 10 8 11 10 7 8 7 11 9 7 2 5 7 9
4 1 1 2 2 1 1 1 1 2 2 2 3 1 5 5 3 5 3 1 3 2 6 3 4 8 13 12 11 9 9 9 7 4 7 5 6 8 8 7 3 5 3 2
1 2 2 1 3 1 1 2 2 2 3 3 4 5 5 2 3 4 2 3 2 2 5 5 3 4 6 15 15 14 15 15 12 12 11 8 8 8 7 7 7 7 7 8
3 2 1 0 1 2 3 3 2 4 4 3 3 4 5 4 3 2 4 3 0 6 2 3 3 4 10 10 15 16 15 15 16 11 12 11 8 9 7 6 7 8 8 9
1 1 1 2 2 4 6 6 4 4 3 4 3 3 4 2 2 3 2 5 6 2 1 3 2 7 10 11 13 15 18 11 9 13 8 8 7 5 6 6 6 8 8 7
3 4 4 5 5 6 6 5 4 5 3 2 2 3 2 2 3 2 3 5 2 2 3 1 4 7 10 10 9 12 17 18 23 15 7 8 7 4 2 4 5 8 8 7
4 4 6 8 5 3 4 4 2 4 2 2 4 3 2 2 3 2 3 4 4 1 2 2 5 7 8 11 10 9 11 13 17 17 19 16 6 4 2 2 6 7 5 9
3 6 4 3 1 4 3 4 6 3 4 1 3 3 2 6 4 3 6 3 4 3 2 3 4 6 8 9 8 10 6 5 8 11 15 18 16 3 1 2 5 7 7 7
5 5 3 2 2 5 3 3 4 3 2 1 1 4 6 0 3 5 6 5 3 4 3 3 7 4 6 7 6 6 9 5 3 11 14 17 18 14 4 5 2 6 11 14
Wind_Direction
324 328 335 339 338 336 37 356 26 330 68 55 40 165 199 272 289 279 243 240 198 238 204 276 266 198 221 305 166 176 198 160 222 223 263 288 190 8 132 133 246 255 147 265
326 338 342 342 342 27 334 5 279 306 100 87 318 302 287 241 275 249 224 255 222 208 214 35 230 263 279 308 18 246 183 224 280 325 350 357 92 174 141 137 88 203 138 257
339 347 346 342 340 2 69 19 19 326 43 100 120 359 290 313 270 261 232 259 196 173 195 195 275 320 291 328 354 87 105 132 162 200 194 165 21 332 104 107 107 183 221 269
359 3 349 341 340 339 108 43 331 170 313 336 340 260 320 328 348 318 338 339 357 241 286 25 29 269 320 326 342 4 87 74 357 129 146 173 48 3 337 191 218 163 270 210
5 14 353 342 340 343 59 49 25 350 293 310 321 351 4 318 333 266 306 20 325 74 87 157 262 238 113 358 324 7 355 37 343 33 338 57 79 34 43 48 342 301 304 250
354 13 347 346 347 9 34 324 342 95 296 337 21 45 330 317 342 297 294 308 340 21 358 298 229 212 221 216 279 343 47 90 36 310 356 31 21 335 16 132 277 242 3 304
354 355 346 349 356 44 123 281 41 48 286 323 349 339 320 331 317 258 290 332 19 308 324 290 319 101 47 97 28 356 136 108 105 257 23 62 212 217 275 156 116 87 285 309
351 347 344 351 352 5 55 303 40 8 285 315 299 357 320 313 303 291 285 333 265 293 318 53 23 348 14 25 43 23 54 123 92 134 129 14 20 239 239 196 209 63 331 326
349 346 345 348 349 353 93 253 230 276 312 257 50 323 297 298 321 332 282 316 308 10 87 78 123 221 266 322 335 53 52 69 109 95 135 214 182 271 244 165 341 74 332 319
345 344 343 343 347 350 303 278 258 109 271 270 129 224 301 320 5 284 298 328 330 351 37 57 110 238 244 185 115 329 360 4 99 112 172 282 235 258 322 122 224 282 320 300
337 337 337 334 338 347 346 276 239 165 277 270 234 237 215 315 205 240 303 352 346 1 56 57 315 45 296 57 243 219 185 139 195 87 136 287 197 269 166 210 187 241 241 221
329 332 331 326 330 337 347 277 302 317 219 258 210 228 224 224 224 132 294 228 3 242 95 145 161 4 347 133 262 54 277 183 198 178 221 227 271 265 250 166 190 223 244 203
320 322 323 318 321 330 323 286 294 300 281 288 341 230 259 217 223 214 191 260 211 234 182 159 196 167 135 209 243 227 256 161 213 6 292 249 242 260 248 252 239 245 247 250
311 315 314 309 312 311 300 259 300 294 285 284 281 298 262 211 178 191 214 253 303 52 37 4 224 221 167 218 219 197 211 118 184 270 284 290 269 228 242 235 262 264 284 267
307 309 306 304 306 304 287 244 225 223 225 277 290 296 272 177 215 217 206 217 226 129 297 169 233 189 129 217 79 239 185 189 169 222 228 204 259 263 208 219 231 239 241 280
295 305 298 300 303 322 273 315 90 222 217 284 300 284 290 305 215 187 188 207 196 186 172 216 225 237 129 190 241 234 205 202 193 238 225 220 262 289 262 231 238 252 259 284
297 292 294 293 294 283 236 264 249 340 234 262 293 289 279 289 264 207 170 176 191 164 190 204 189 245 140 185 250 214 252 237 236 243 252 295 255 253 342 246 257 201 240 235
302 294 288 295 288 248 275 255 236 201 247 234 278 277 310 1 336 327 295 150 145 226 195 81 169 73 145 250 279 233 231 241 251 248 201 224 265 311 284 262 262 272 273 312
290 296 297 276 248 229 245 286 118 240 227 259 264 300 293 352 326 286 326 75 160 278 186 221 120 191 224 229 228 237 234 201 232 251 227 240 239 265 284 267 246 230 264 245
285 298 248 254 221 335 310 221 237 202 209 237 256 194 277 16 342 297 348 313 237 184 240 102 169 242 246 249 236 237 257 228 223 233 279 252 245 233 250 230 187 193 214 105
205 213 226 342 318 336 233 259 221 178 240 217 240 223 239 242 205 266 236 289 274 247 253 153 230 275 347 350 315 288 270 259 239 229 242 226 213 231 220 241 189 203 164 182
185 184 90 48 256 237 248 229 195 214 239 223 208 230 201 256 196 248 270 261 25 247 149 145 248 330 319 321 326 310 302 274 257 238 228 235 229 232 220 223 198 199 183 188
115 178 215 169 201 214 220 203 211 219 211 224 213 235 214 202 208 252 269 241 238 4 277 225 84 282 326 338 340 348 360 327 248 250 213 210 219 213 209 249 228 205 196 193
182 182 234 214 211 222 208 211 195 227 193 256 274 284 255 222 190 240 251 256 334 256 240 63 283 295 308 325 331 358 3 12 17 346 258 178 181 194 229 296 229 199 203 170
199 189 225 223 225 244 223 217 274 254 262 298 323 269 230 265 221 203 319 287 258 180 72 256 264 298 311 323 347 342 23 21 23 3 4 324 140 153 191 279 240 208 132 149
223 225 241 233 350 260 223 229 256 224 244 207 184 245 236 236 211 181 216 248 244 127 160 245 289 300 307 306 315 307 309 40 29 16 7 348 314 146 242 323 224 199 153 118
215 232 216 240 274 241 242 183 233 181 85 251 307 212 234 148 237 212 187 210 199 176 212 233 239 240 274 279 285 297 315 348 347 41 7 341 319 296 24 4 12 124 115 120